Location: Clyde
(45.1830°S, 169.3170°E)
Time: 10:53:15
(UTC+12:00)

Cosmos 2297 - Pass Details

Date: 14 May 2021
Orbit: 837 x 857 km, 71.0° (Epoch: 15 June)

Event Time Altitude Azimuth Distance (km) Brightness Sun altitude
Rises 20:14:56 0° 207° (SSW) 3,464 7.3 -29.9°
Reaches altitude 10° 20:17:24 10° 208° (SSW) 2,523 6.5 -30.3°
Enters shadow 20:22:11 61° 225° (SW) 986 4.1 -31.2°
